• Em Portugal
  • Lista de países
  • Para 7 dias
  • Temperatura da água
  • Mapas de satélite
  • Mapa do tempo
  • Widgets de tempo
  • user-avatar
    Iniciar Sessão

    Previsão horária em Haetchina

    Hoje, 25 Setembro, Terça-feira

    Tempo Temperatura Precipitação Vento Pressão Humidade
    00:00 +5°C° 0.1 mm 7 m/s 733 mmHg 90%
    01:00 +5°C° 0.1 mm 6 m/s 734 mmHg 90%
    02:00 +5°C° 0 mm 6 m/s 735 mmHg 89%
    03:00 +5°C° 0 mm 6 m/s 736 mmHg 90%
    04:00 +4°C° 0 mm 6 m/s 736 mmHg 90%
    05:00 +4°C° 0 mm 6 m/s 737 mmHg 90%
    06:00 +4°C° 0 mm 6 m/s 738 mmHg 90%
    07:00 +4°C° 0 mm 7 m/s 738 mmHg 89%
    08:00 +3°C° 0 mm 6 m/s 739 mmHg 87%
    09:00 +4°C° 0 mm 6 m/s 740 mmHg 87%
    10:00 +4°C° 0 mm 6 m/s 740 mmHg 86%
    11:00 +4°C° 0 mm 6 m/s 741 mmHg 85%
    12:00 +4°C° 0 mm 6 m/s 741 mmHg 82%
    13:00 +5°C° 0 mm 6 m/s 742 mmHg 79%
    14:00 +7°C° 0 mm 6 m/s 743 mmHg 77%
    15:00 +6°C° 0 mm 5 m/s 743 mmHg 76%
    16:00 +6°C° 0 mm 5 m/s 743 mmHg 75%
    17:00 +6°C° 0 mm 4 m/s 744 mmHg 75%
    18:00 +5°C° 0 mm 4 m/s 745 mmHg 76%
    19:00 +4°C° 0 mm 4 m/s 745 mmHg 78%
    20:00 +4°C° 0 mm 4 m/s 746 mmHg 79%
    21:00 +3°C° 0 mm 4 m/s 747 mmHg 79%
    22:00 +3°C° 0 mm 4 m/s 747 mmHg 80%
    23:00 +1°C° 0 mm 4 m/s 748 mmHg 80%

    Amanhã, 26 Setembro, Quarta-feira

    Tempo Temperatura Precipitação Vento Pressão Humidade
    00:00 +1°C° 0 mm 4 m/s 748 mmHg 80%
    01:00 +1°C° 0 mm 4 m/s 749 mmHg 80%
    02:00 0°C° 0 mm 4 m/s 750 mmHg 80%
    03:00 0°C° 0 mm 4 m/s 750 mmHg 83%
    04:00 +1°C° 0 mm 3 m/s 750 mmHg 85%
    05:00 0°C° 0 mm 3 m/s 751 mmHg 88%
    06:00 0°C° 0 mm 4 m/s 751 mmHg 85%
    07:00 +1°C° 0 mm 4 m/s 751 mmHg 83%
    08:00 +3°C° 0 mm 4 m/s 751 mmHg 81%
    09:00 +5°C° 0 mm 4 m/s 751 mmHg 74%
    10:00 +7°C° 0 mm 5 m/s 751 mmHg 67%
    11:00 +9°C° 0 mm 5 m/s 751 mmHg 60%
    12:00 +9°C° 0 mm 5 m/s 751 mmHg 59%
    13:00 +10°C° 0 mm 6 m/s 750 mmHg 57%
    14:00 +10°C° 0 mm 6 m/s 750 mmHg 56%
    15:00 +10°C° 0 mm 6 m/s 749 mmHg 58%
    16:00 +9°C° 0 mm 6 m/s 748 mmHg 61%
    17:00 +8°C° 0 mm 6 m/s 748 mmHg 63%
    18:00 +8°C° 0.2 mm 6 m/s 747 mmHg 66%
    19:00 +6°C° 0.2 mm 7 m/s 746 mmHg 69%
    20:00 +5°C° 0.2 mm 8 m/s 746 mmHg 72%
    21:00 +5°C° 0.5 mm 8 m/s 745 mmHg 76%
    22:00 +5°C° 0.5 mm 9 m/s 744 mmHg 80%
    23:00 +3°C° 0.5 mm 10 m/s 743 mmHg 84%

    Depois de amanhã, 27 Setembro, Quinta-feira

    Tempo Temperatura Precipitação Vento Pressão Humidade
    00:00 +5°C° 0.6 mm 10 m/s 742 mmHg 85%
    01:00 +5°C° 0.6 mm 10 m/s 741 mmHg 87%
    02:00 +5°C° 0.6 mm 10 m/s 740 mmHg 88%
    03:00 +5°C° 0.3 mm 10 m/s 739 mmHg 88%
    04:00 +5°C° 0.3 mm 10 m/s 739 mmHg 89%
    05:00 +6°C° 0.3 mm 10 m/s 738 mmHg 89%
    06:00 +6°C° 0.5 mm 9 m/s 738 mmHg 90%
    07:00 +7°C° 0.5 mm 8 m/s 738 mmHg 90%
    08:00 +7°C° 0.5 mm 8 m/s 738 mmHg 91%
    09:00 +9°C° 0.2 mm 7 m/s 739 mmHg 84%
    10:00 +10°C° 0.2 mm 6 m/s 739 mmHg 77%
    11:00 +11°C° 0.2 mm 6 m/s 739 mmHg 70%
    12:00 +13°C° 0 mm 6 m/s 739 mmHg 66%
    13:00 +13°C° 0 mm 6 m/s 740 mmHg 63%
    14:00 +14°C° 0 mm 6 m/s 740 mmHg 60%
    15:00 +13°C° 0 mm 5 m/s 740 mmHg 64%
    16:00 +12°C° 0 mm 5 m/s 740 mmHg 69%
    17:00 +11°C° 0 mm 4 m/s 740 mmHg 73%
    18:00 +10°C° 0 mm 4 m/s 741 mmHg 75%
    19:00 +10°C° 0 mm 4 m/s 741 mmHg 78%
    20:00 +8°C° 0 mm 4 m/s 741 mmHg 80%
    21:00 +7°C° 0 mm 4 m/s 741 mmHg 82%
    22:00 +7°C° 0 mm 4 m/s 741 mmHg 84%
    23:00 +7°C° 0 mm 4 m/s 741 mmHg 86%

    28 Setembro, Sexta-feira

    Tempo Temperatura Precipitação Vento Pressão Humidade
    00:00 +7°C° 0 mm 5 m/s 740 mmHg 86%
    01:00 +8°C° 0 mm 6 m/s 739 mmHg 86%
    02:00 +9°C° 0 mm 7 m/s 738 mmHg 86%
    03:00 +10°C° 0 mm 8 m/s 738 mmHg 86%
    04:00 +11°C° 0 mm 8 m/s 737 mmHg 86%
    05:00 +11°C° 0 mm 9 m/s 736 mmHg 86%
    06:00 +12°C° 0.1 mm 9 m/s 736 mmHg 85%
    07:00 +12°C° 0.1 mm 9 m/s 735 mmHg 85%
    08:00 +12°C° 0.1 mm 9 m/s 735 mmHg 85%
    09:00 +12°C° 0.4 mm 9 m/s 735 mmHg 85%
    10:00 +12°C° 0.4 mm 8 m/s 735 mmHg 85%
    11:00 +12°C° 0.4 mm 8 m/s 736 mmHg 86%
    12:00 +12°C° 0.3 mm 8 m/s 736 mmHg 81%
    13:00 +12°C° 0.3 mm 7 m/s 737 mmHg 76%
    14:00 +12°C° 0.3 mm 7 m/s 737 mmHg 71%
    15:00 +11°C° 0 mm 6 m/s 738 mmHg 73%
    16:00 +11°C° 0 mm 4 m/s 738 mmHg 75%
    17:00 +10°C° 0 mm 3 m/s 739 mmHg 77%
    18:00 +9°C° 0 mm 2 m/s 739 mmHg 80%
    19:00 +8°C° 0 mm 2 m/s 740 mmHg 83%
    20:00 +6°C° 0 mm 2 m/s 740 mmHg 86%
    21:00 +7°C° 0 mm 1 m/s 741 mmHg 87%
    22:00 +7°C° 0 mm 1 m/s 741 mmHg 87%
    23:00 +6°C° 0 mm 1 m/s 742 mmHg 88%

    29 Setembro, Sábado

    Tempo Temperatura Precipitação Vento Pressão Humidade
    00:00 +6°C° 0 mm 1 m/s 742 mmHg 88%
    01:00 +6°C° 0 mm 1 m/s 743 mmHg 89%
    02:00 +5°C° 0 mm 1 m/s 743 mmHg 89%
    03:00 +5°C° 0 mm 1 m/s 743 mmHg 90%
    04:00 +5°C° 0 mm 1 m/s 744 mmHg 91%
    05:00 +5°C° 0 mm 1 m/s 744 mmHg 92%
    06:00 +4°C° 0 mm 2 m/s 745 mmHg 90%
    07:00 +5°C° 0 mm 2 m/s 745 mmHg 88%
    08:00 +5°C° 0 mm 2 m/s 746 mmHg 85%
    09:00 +7°C° 0 mm 3 m/s 747 mmHg 78%
    10:00 +8°C° 0 mm 3 m/s 747 mmHg 70%
    11:00 +9°C° 0 mm 3 m/s 748 mmHg 62%
    12:00 +9°C° 0 mm 3 m/s 748 mmHg 59%
    13:00 +10°C° 0 mm 3 m/s 748 mmHg 55%
    14:00 +10°C° 0 mm 3 m/s 748 mmHg 51%
    15:00 +9°C° 0 mm 3 m/s 749 mmHg 55%
    16:00 +8°C° 0 mm 2 m/s 749 mmHg 59%
    17:00 +7°C° 0 mm 2 m/s 749 mmHg 63%
    18:00 +6°C° 0 mm 2 m/s 750 mmHg 64%
    19:00 +5°C° 0 mm 2 m/s 750 mmHg 66%
    20:00 +5°C° 0 mm 1 m/s 751 mmHg 67%
    21:00 +4°C° 0 mm 1 m/s 751 mmHg 69%
    22:00 +4°C° 0 mm 1 m/s 751 mmHg 70%
    23:00 +3°C° 0 mm 1 m/s 752 mmHg 71%

    30 Setembro, Domingo

    Tempo Temperatura Precipitação Vento Pressão Humidade
    00:00 +3°C° 0 mm 1 m/s 752 mmHg 72%
    01:00 +3°C° 0 mm 1 m/s 752 mmHg 73%
    02:00 +3°C° 0 mm 1 m/s 752 mmHg 74%
    03:00 +2°C° 0 mm 1 m/s 752 mmHg 74%
    04:00 +2°C° 0 mm 1 m/s 752 mmHg 75%
    05:00 +2°C° 0 mm 1 m/s 752 mmHg 76%
    06:00 +2°C° 0 mm 2 m/s 752 mmHg 73%
    07:00 +3°C° 0 mm 2 m/s 752 mmHg 71%
    08:00 +4°C° 0 mm 2 m/s 752 mmHg 68%
    09:00 +6°C° 0 mm 2 m/s 752 mmHg 62%
    10:00 +7°C° 0 mm 3 m/s 752 mmHg 57%
    11:00 +9°C° 0 mm 3 m/s 752 mmHg 51%
    12:00 +9°C° 0 mm 3 m/s 752 mmHg 50%
    13:00 +10°C° 0 mm 3 m/s 751 mmHg 48%
    14:00 +11°C° 0 mm 4 m/s 751 mmHg 46%
    15:00 +10°C° 0 mm 3 m/s 750 mmHg 52%
    16:00 +9°C° 0 mm 3 m/s 750 mmHg 58%
    17:00 +8°C° 0 mm 2 m/s 749 mmHg 63%
    18:00 +7°C° 0 mm 2 m/s 749 mmHg 66%
    19:00 +6°C° 0 mm 2 m/s 749 mmHg 68%
    20:00 +4°C° 0 mm 3 m/s 749 mmHg 71%
    21:00 +4°C° 0 mm 3 m/s 749 mmHg 73%
    22:00 +4°C° 0 mm 3 m/s 749 mmHg 76%
    23:00 +3°C° 0 mm 3 m/s 749 mmHg 78%
    Mostrar mais